User: anonymous   Login
Location: Équennes
(49.7375°N, 1.9622°E)
Time: 08:40:24
(UTC+00:00)
Language:

Cosmos 2263 Rocket - Orbit

View from above orbital plane
View from above orbital plane
View from above satellite
View from above satellite

Ground track
Ground track

The orbit data is extracted from the following two-line orbital elements,

1 22803U 93059B   23156.89773712  .00000223  00000-0  13471-3 0  9998
2 22803  70.9901 335.8663 0018974 301.9526  57.9752 14.16935233536761
Epoch (UTC): 05 June 2023 21:32:44
Eccentricity: 0.0018974
inclination: 70.9901°
perigee height: 822 km
apogee height: 849 km
right ascension of ascending node: 335.8663°
argument of perigee: 301.9526°
revolutions per day: 14.16935233
mean anomaly at epoch: 57.9752°
orbit number at epoch: 53676

The dashed part of the orbit path shows where the satellite is in the earth's shadow,  

DLR